Tracking 20041 objects as of 22-Nov-2019
Live streaming from Space Station
objects crossing your sky now

COSMOS 1927

Track COSMOS 1927 now!
10-day predictions
COSMOS 1927 is classified as:


NORAD ID: 18940
Int'l Code: 1988-016D
Perigee: 1,461.4 km
Apogee: 1,474.5 km
Inclination: 74.0 °
Period: 115.1 minutes
Semi major axis: 7838 km
RCS: 0.7207 m2 (medium)
Launch date: March 11, 1988
Source: Commonwealth of Independent States (former USSR) (CIS)
Launch site: PLESETSK MISSILE AND SPACE COMPLEX (PKMTR)
aabbcc
Your satellite tracking list
Your tracking list is empty




NASA's NSSDC Master Catalog

Two Line Element Set (TLE):
1 18940U 88016D   19325.74205219 -.00000025 +00000-0 -55659-4 0  9998
2 18940 074.0059 230.2391 0008318 239.6413 149.7356 12.50877759447480
Source of the keplerian elements: AFSPC